This is the latest recevied weather packets stored in our database for station/object DO3HUM-5. If no packets are shown the sender has not sent any weather packets the latest 10 day(s).
| Time | Temp. | Humidity | Pressure | Rain* | Wind** | Luminosity | Snow |
|---|---|---|---|---|---|---|---|
| 1777593038 | 5° C | 85% | 1036.8 hPa | 0 mm | - | - | - |
| 1777592434 | 4.44° C | 85% | 1036.9 hPa | 0 mm | - | - | - |
| 1777591831 | 4.44° C | 84% | 1037 hPa | 0 mm | - | - | - |
| 1777591228 | 5° C | 84% | 1036.9 hPa | 0 mm | - | - | - |
| 1777590627 | 5° C | 83% | 1036.9 hPa | 0 mm | - | - | - |
| 1777590022 | 5° C | 82% | 1036.9 hPa | 0 mm | - | - | - |
| 1777589417 | 5.56° C | 82% | 1036.9 hPa | 0 mm | - | - | - |
| 1777588875 | 5.56° C | 81% | 1037.1 hPa | 0 mm | - | - | - |
| 1777588272 | 6.11° C | 79% | 1037.1 hPa | 0 mm | - | - | - |
| 1777587671 | 6.67° C | 78% | 1037.2 hPa | 0 mm | - | - | - |
| 1777587067 | 6.67° C | 79% | 1037 hPa | 0 mm | - | - | - |
| 1777586464 | 6.67° C | 78% | 1036.9 hPa | 0 mm | - | - | - |
| 1777585861 | 6.67° C | 80% | 1037 hPa | 0 mm | - | - | - |
| 1777585259 | 6.67° C | 78% | 1037.1 hPa | 0 mm | - | - | - |
| 1777584655 | 7.22° C | 76% | 1037 hPa | 0 mm | - | - | - |
| 1777584052 | 7.78° C | 74% | 1037 hPa | 0 mm | - | - | - |
| 1777583449 | 7.78° C | 73% | 1037 hPa | 0 mm | - | - | - |
| 1777582847 | 7.78° C | 74% | 1037 hPa | 0 mm | - | - | - |
| 1777582243 | 7.78° C | 74% | 1036.9 hPa | 0 mm | - | - | - |
| 1777581642 | 7.78° C | 74% | 1036.9 hPa | 0 mm | - | - | - |
| 1777581038 | 8.33° C | 73% | 1036.8 hPa | 0 mm | - | - | - |
| 1777580463 | 8.33° C | 70% | 1036.9 hPa | 0 mm | - | - | - |
| 1777579832 | 8.89° C | 69% | 1036.9 hPa | 0 mm | - | - | - |
| 1777579229 | 8.89° C | 68% | 1036.9 hPa | 0 mm | - | - | - |
| 1777578628 | 9.44° C | 68% | 1036.9 hPa | 0 mm | - | - | - |
* Rain latest hour (hover to see other rain measurements)
** Current wind speed in m/s (hover to see current wind gust speed)